Year,Month,Day,Hour,Minute,Value (Times are PST for temperature in C)
2011,07,02,00,00,11.40
2011,07,02,00,01,11.40
2011,07,02,00,02,11.40
2011,07,02,00,03,11.40
2011,07,02,00,04,11.40
2011,07,02,00,05,11.30
2011,07,02,00,06,11.30
2011,07,02,00,07,11.30
2011,07,02,00,08,11.30
2011,07,02,00,09,11.30
2011,07,02,00,10,11.30
2011,07,02,00,11,11.30
2011,07,02,00,12,11.30
2011,07,02,00,13,11.30
2011,07,02,00,14,11.20
2011,07,02,00,15,11.20
2011,07,02,00,16,11.20
2011,07,02,00,17,11.20
2011,07,02,00,18,11.20
2011,07,02,00,19,11.20
2011,07,02,00,20,11.20
2011,07,02,00,21,11.20
2011,07,02,00,22,11.20
2011,07,02,00,23,11.20
2011,07,02,00,24,11.10
2011,07,02,00,25,11.10
2011,07,02,00,26,11.10
2011,07,02,00,27,11.10
2011,07,02,00,28,11.10
2011,07,02,00,29,11.10
2011,07,02,00,30,11.10
2011,07,02,00,31,11.10
2011,07,02,00,32,11.10
2011,07,02,00,33,11.10
2011,07,02,00,34,11.10
2011,07,02,00,35,11.00
2011,07,02,00,36,11.00
2011,07,02,00,37,11.00
2011,07,02,00,38,11.00
2011,07,02,00,39,11.00
2011,07,02,00,40,11.00
2011,07,02,00,41,10.90
2011,07,02,00,42,10.90
2011,07,02,00,43,10.90
2011,07,02,00,44,10.90
2011,07,02,00,45,10.90
2011,07,02,00,46,10.90
2011,07,02,00,47,10.80
2011,07,02,00,48,10.80
2011,07,02,00,49,10.80
2011,07,02,00,50,10.80
2011,07,02,00,51,10.80
2011,07,02,00,52,10.80
2011,07,02,00,53,10.80
2011,07,02,00,54,10.80
2011,07,02,00,55,10.70
2011,07,02,00,56,10.70
2011,07,02,00,57,10.70
2011,07,02,00,58,10.70
2011,07,02,00,59,10.70
2011,07,02,01,00,10.70
2011,07,02,01,01,10.70
2011,07,02,01,02,10.60
2011,07,02,01,03,10.60
2011,07,02,01,04,10.60
2011,07,02,01,05,10.60
2011,07,02,01,06,10.60
2011,07,02,01,07,10.60
2011,07,02,01,08,10.50
2011,07,02,01,09,10.50
2011,07,02,01,10,10.50
2011,07,02,01,11,10.50
2011,07,02,01,12,10.40
2011,07,02,01,13,10.40
2011,07,02,01,14,10.40
2011,07,02,01,15,10.40
2011,07,02,01,16,10.40
2011,07,02,01,17,10.40
2011,07,02,01,18,10.30
2011,07,02,01,19,10.30
2011,07,02,01,20,10.30
2011,07,02,01,21,10.30
2011,07,02,01,22,10.30
2011,07,02,01,23,10.30
2011,07,02,01,24,10.30
2011,07,02,01,25,10.30
2011,07,02,01,26,10.20
2011,07,02,01,27,10.20
2011,07,02,01,28,10.20
2011,07,02,01,29,10.20
2011,07,02,01,30,10.20
2011,07,02,01,31,10.20
2011,07,02,01,32,10.20
2011,07,02,01,33,10.10
2011,07,02,01,34,10.20
2011,07,02,01,35,10.10
2011,07,02,01,36,10.10
2011,07,02,01,37,10.10
2011,07,02,01,38,10.10
2011,07,02,01,39,10.10
2011,07,02,01,40,10.10
2011,07,02,01,41,10.10
2011,07,02,01,42,10.10
2011,07,02,01,43,10.10
2011,07,02,01,44,10.00
2011,07,02,01,45,10.00
2011,07,02,01,46,10.00
2011,07,02,01,47,10.00
2011,07,02,01,48,10.00
2011,07,02,01,49,10.00
2011,07,02,01,50,9.90
2011,07,02,01,51,9.90
2011,07,02,01,52,9.90
2011,07,02,01,53,9.90
2011,07,02,01,54,9.90
2011,07,02,01,55,9.90
2011,07,02,01,56,9.90
2011,07,02,01,57,9.90
2011,07,02,01,58,9.90
2011,07,02,01,59,9.90
2011,07,02,02,00,9.90
2011,07,02,02,01,9.90
2011,07,02,02,02,9.80
2011,07,02,02,03,9.80
2011,07,02,02,04,9.80
2011,07,02,02,05,9.80
2011,07,02,02,06,9.80
2011,07,02,02,07,9.80
2011,07,02,02,08,9.80
2011,07,02,02,09,9.80
2011,07,02,02,10,9.80
2011,07,02,02,11,9.70
2011,07,02,02,12,9.70
2011,07,02,02,13,9.70
2011,07,02,02,14,9.70
2011,07,02,02,15,9.70
2011,07,02,02,16,9.70
2011,07,02,02,17,9.70
2011,07,02,02,18,9.60
2011,07,02,02,19,9.60
2011,07,02,02,20,9.60
2011,07,02,02,21,9.60
2011,07,02,02,22,9.60
2011,07,02,02,23,9.60
2011,07,02,02,24,9.60
2011,07,02,02,25,9.60
2011,07,02,02,26,9.60
2011,07,02,02,27,9.60
2011,07,02,02,28,9.60
2011,07,02,02,29,9.60
2011,07,02,02,30,9.50
2011,07,02,02,31,9.50
2011,07,02,02,32,9.50
2011,07,02,02,33,9.50
2011,07,02,02,34,9.50
2011,07,02,02,35,9.40
2011,07,02,02,36,9.40
2011,07,02,02,37,9.40
2011,07,02,02,38,9.40
2011,07,02,02,39,9.40
2011,07,02,02,40,9.40
2011,07,02,02,41,9.40
2011,07,02,02,42,9.40
2011,07,02,02,43,9.40
2011,07,02,02,44,9.40
2011,07,02,02,45,9.40
2011,07,02,02,46,9.40
2011,07,02,02,47,9.30
2011,07,02,02,48,9.30
2011,07,02,02,49,9.30
2011,07,02,02,50,9.30
2011,07,02,02,51,9.30
2011,07,02,02,52,9.30
2011,07,02,02,53,9.30
2011,07,02,02,54,9.30
2011,07,02,02,55,9.30
2011,07,02,02,56,9.30
2011,07,02,02,57,9.30
2011,07,02,02,58,9.30
2011,07,02,02,59,9.20
2011,07,02,03,00,9.20
2011,07,02,03,01,9.20
2011,07,02,03,02,9.20
2011,07,02,03,03,9.20
2011,07,02,03,04,9.20
2011,07,02,03,05,9.20
2011,07,02,03,06,9.20
2011,07,02,03,07,9.10
2011,07,02,03,08,9.10
2011,07,02,03,09,9.10
2011,07,02,03,10,9.10
2011,07,02,03,11,9.10
2011,07,02,03,12,9.10
2011,07,02,03,13,9.10
2011,07,02,03,14,9.10
2011,07,02,03,15,9.00
2011,07,02,03,16,9.00
2011,07,02,03,17,9.00
2011,07,02,03,18,9.00
2011,07,02,03,19,9.00
2011,07,02,03,20,9.00
2011,07,02,03,21,9.00
2011,07,02,03,22,8.90
2011,07,02,03,23,8.90
2011,07,02,03,24,8.90
2011,07,02,03,25,8.90
2011,07,02,03,26,8.90
2011,07,02,03,27,8.90
2011,07,02,03,28,8.90
2011,07,02,03,29,8.90
2011,07,02,03,30,8.80
2011,07,02,03,31,8.80
2011,07,02,03,32,8.80
2011,07,02,03,33,8.80
2011,07,02,03,34,8.80
2011,07,02,03,35,8.80
2011,07,02,03,36,8.80
2011,07,02,03,37,8.80
2011,07,02,03,38,8.80
2011,07,02,03,39,8.80
2011,07,02,03,40,8.80
2011,07,02,03,41,8.80
2011,07,02,03,42,8.80
2011,07,02,03,43,8.80
2011,07,02,03,44,8.80
2011,07,02,03,45,8.80
2011,07,02,03,46,8.80
2011,07,02,03,47,8.80
2011,07,02,03,48,8.80
2011,07,02,03,49,8.80
2011,07,02,03,50,8.80
2011,07,02,03,51,8.80
2011,07,02,03,52,8.80
2011,07,02,03,53,8.80
2011,07,02,03,54,8.80
2011,07,02,03,55,8.80
2011,07,02,03,56,8.80
2011,07,02,03,57,8.80
2011,07,02,03,58,8.70
2011,07,02,03,59,8.70
2011,07,02,04,00,8.70
2011,07,02,04,01,8.70
2011,07,02,04,02,8.70
2011,07,02,04,03,8.70
2011,07,02,04,04,8.70
2011,07,02,04,05,8.60
2011,07,02,04,06,8.60
2011,07,02,04,07,8.60
2011,07,02,04,08,8.60
2011,07,02,04,09,8.60
2011,07,02,04,10,8.60
2011,07,02,04,11,8.50
2011,07,02,04,12,8.50
2011,07,02,04,13,8.50
2011,07,02,04,14,8.50
2011,07,02,04,15,8.50
2011,07,02,04,16,8.40
2011,07,02,04,17,8.40
2011,07,02,04,18,8.40
2011,07,02,04,19,8.40
2011,07,02,04,20,8.40
2011,07,02,04,21,8.40
2011,07,02,04,22,8.40
2011,07,02,04,23,8.40
2011,07,02,04,24,8.40
2011,07,02,04,25,8.30
2011,07,02,04,26,8.30
2011,07,02,04,27,8.30
2011,07,02,04,28,8.30
2011,07,02,04,29,8.30
2011,07,02,04,30,8.30
2011,07,02,04,31,8.30
2011,07,02,04,32,8.30
2011,07,02,04,33,8.30
2011,07,02,04,34,8.30
2011,07,02,04,35,8.30
2011,07,02,04,36,8.30
2011,07,02,04,37,8.30
2011,07,02,04,38,8.30
2011,07,02,04,39,8.30
2011,07,02,04,40,8.30
2011,07,02,04,41,8.30
2011,07,02,04,42,8.20
2011,07,02,04,43,8.20
2011,07,02,04,44,8.20
2011,07,02,04,45,8.20
2011,07,02,04,46,8.20
2011,07,02,04,47,8.20
2011,07,02,04,48,8.20
2011,07,02,04,49,8.20
2011,07,02,04,50,8.10
2011,07,02,04,51,8.10
2011,07,02,04,52,8.10
2011,07,02,04,53,8.10
2011,07,02,04,54,8.10
2011,07,02,04,55,8.10
2011,07,02,04,56,8.10
2011,07,02,04,57,8.10
2011,07,02,04,58,8.10
2011,07,02,04,59,8.10
2011,07,02,05,00,8.10
2011,07,02,05,01,8.10
2011,07,02,05,02,8.10
2011,07,02,05,03,8.00
2011,07,02,05,04,8.00
2011,07,02,05,05,8.00
2011,07,02,05,06,8.00
2011,07,02,05,07,7.90
2011,07,02,05,08,7.90
2011,07,02,05,09,7.90
2011,07,02,05,10,7.90
2011,07,02,05,11,7.90
2011,07,02,05,12,7.90
2011,07,02,05,13,7.80
2011,07,02,05,14,7.80
2011,07,02,05,15,7.80
2011,07,02,05,16,7.80
2011,07,02,05,17,7.80
2011,07,02,05,18,7.80
2011,07,02,05,19,7.80
2011,07,02,05,20,7.80
2011,07,02,05,21,7.80
2011,07,02,05,22,7.80
2011,07,02,05,23,7.80
2011,07,02,05,24,7.80
2011,07,02,05,25,7.80
2011,07,02,05,26,7.80
2011,07,02,05,27,7.80
2011,07,02,05,28,7.80
2011,07,02,05,29,7.80
2011,07,02,05,30,7.80
2011,07,02,05,31,7.70
2011,07,02,05,32,7.70
2011,07,02,05,33,7.70
2011,07,02,05,34,7.70
2011,07,02,05,35,7.70
2011,07,02,05,36,7.70
2011,07,02,05,37,7.80
2011,07,02,05,38,7.80
2011,07,02,05,39,7.80
2011,07,02,05,40,7.80
2011,07,02,05,41,7.70
2011,07,02,05,42,7.70
2011,07,02,05,43,7.70
2011,07,02,05,44,7.70
2011,07,02,05,45,7.70
2011,07,02,05,46,7.70
2011,07,02,05,47,7.70
2011,07,02,05,48,7.70
2011,07,02,05,49,7.70
2011,07,02,05,50,7.70
2011,07,02,05,51,7.70
2011,07,02,05,52,7.70
2011,07,02,05,53,7.70
2011,07,02,05,54,7.80
2011,07,02,05,55,7.80
2011,07,02,05,56,7.80
2011,07,02,05,57,7.80
2011,07,02,05,58,7.80
2011,07,02,05,59,7.80
2011,07,02,06,00,7.80
2011,07,02,06,01,7.80
2011,07,02,06,02,7.80
2011,07,02,06,03,7.70
2011,07,02,06,04,7.80
2011,07,02,06,05,7.80
2011,07,02,06,06,7.80
2011,07,02,06,07,7.80
2011,07,02,06,08,7.80
2011,07,02,06,09,7.80
2011,07,02,06,10,7.80
2011,07,02,06,11,7.80
2011,07,02,06,12,7.80
2011,07,02,06,13,7.90
2011,07,02,06,14,7.90
2011,07,02,06,15,7.90
2011,07,02,06,16,7.90
2011,07,02,06,17,7.90
2011,07,02,06,18,7.90
2011,07,02,06,19,8.00
2011,07,02,06,20,8.00
2011,07,02,06,21,8.00
2011,07,02,06,22,8.00
2011,07,02,06,23,8.00
2011,07,02,06,24,8.10
2011,07,02,06,25,8.10
2011,07,02,06,26,8.10
2011,07,02,06,27,8.10
2011,07,02,06,28,8.10
2011,07,02,06,29,8.10
2011,07,02,06,30,8.20
2011,07,02,06,31,8.20
2011,07,02,06,32,8.20
2011,07,02,06,33,8.20
2011,07,02,06,34,8.20
2011,07,02,06,35,8.30
2011,07,02,06,36,8.30
2011,07,02,06,37,8.30
2011,07,02,06,38,8.40
2011,07,02,06,39,8.40
2011,07,02,06,40,8.50
2011,07,02,06,41,8.50
2011,07,02,06,42,8.60
2011,07,02,06,43,8.60
2011,07,02,06,44,8.60
2011,07,02,06,45,8.60
2011,07,02,06,46,8.70
2011,07,02,06,47,8.70
2011,07,02,06,48,8.80
2011,07,02,06,49,8.80
2011,07,02,06,50,8.90
2011,07,02,06,51,8.90
2011,07,02,06,52,9.00
2011,07,02,06,53,9.00
2011,07,02,06,54,9.10
2011,07,02,06,55,9.20
2011,07,02,06,56,9.20
2011,07,02,06,57,9.30
2011,07,02,06,58,9.40
2011,07,02,06,59,9.50
2011,07,02,07,00,9.60
2011,07,02,07,01,9.70
2011,07,02,07,02,9.80
2011,07,02,07,03,10.00
2011,07,02,07,04,10.10
2011,07,02,07,05,10.30
2011,07,02,07,06,10.40
2011,07,02,07,07,10.50
2011,07,02,07,08,10.70
2011,07,02,07,09,10.80
2011,07,02,07,10,10.80
2011,07,02,07,11,10.90
2011,07,02,07,12,11.10
2011,07,02,07,13,11.20
2011,07,02,07,14,11.30
2011,07,02,07,15,11.50
2011,07,02,07,16,11.60
2011,07,02,07,17,11.70
2011,07,02,07,18,11.80
2011,07,02,07,19,11.90
2011,07,02,07,20,12.00
2011,07,02,07,21,12.10
2011,07,02,07,22,12.20
2011,07,02,07,23,12.30
2011,07,02,07,24,12.40
2011,07,02,07,25,12.50
2011,07,02,07,26,12.60
2011,07,02,07,27,12.70
2011,07,02,07,28,12.70
2011,07,02,07,29,12.80
2011,07,02,07,30,12.90
2011,07,02,07,31,13.00
2011,07,02,07,32,13.10
2011,07,02,07,33,13.20
2011,07,02,07,34,13.30
2011,07,02,07,35,13.30
2011,07,02,07,36,13.40
2011,07,02,07,37,13.50
2011,07,02,07,38,13.60
2011,07,02,07,39,13.70
2011,07,02,07,40,13.80
2011,07,02,07,41,13.90
2011,07,02,07,42,14.00
2011,07,02,07,43,14.10
2011,07,02,07,44,14.20
2011,07,02,07,45,14.30
2011,07,02,07,46,14.30
2011,07,02,07,47,14.30
2011,07,02,07,48,14.30
2011,07,02,07,49,14.30
2011,07,02,07,50,14.30
2011,07,02,07,51,14.40
2011,07,02,07,52,14.40
2011,07,02,07,53,14.50
2011,07,02,07,54,14.60
2011,07,02,07,55,14.60
2011,07,02,07,56,14.70
2011,07,02,07,57,14.80
2011,07,02,07,58,14.90
2011,07,02,07,59,15.00
2011,07,02,08,00,15.10
2011,07,02,08,01,15.20
2011,07,02,08,02,15.30
2011,07,02,08,03,15.30
2011,07,02,08,04,15.30
2011,07,02,08,05,15.40
2011,07,02,08,06,15.40
2011,07,02,08,07,15.50
2011,07,02,08,08,15.60
2011,07,02,08,09,15.60
2011,07,02,08,10,15.70
2011,07,02,08,11,15.70
2011,07,02,08,12,15.80
2011,07,02,08,13,15.80
2011,07,02,08,14,15.90
2011,07,02,08,15,15.80
2011,07,02,08,16,15.80
2011,07,02,08,17,15.80
2011,07,02,08,18,15.90
2011,07,02,08,19,15.90
2011,07,02,08,20,15.90
2011,07,02,08,21,15.90
2011,07,02,08,22,16.00
2011,07,02,08,23,16.00
2011,07,02,08,24,16.00
2011,07,02,08,25,16.00
2011,07,02,08,26,16.00
2011,07,02,08,27,16.00
2011,07,02,08,28,16.00
2011,07,02,08,29,16.00
2011,07,02,08,30,16.10
2011,07,02,08,31,16.10
2011,07,02,08,32,16.10
2011,07,02,08,33,16.20
2011,07,02,08,34,16.30
2011,07,02,08,35,16.40
2011,07,02,08,36,16.40
2011,07,02,08,37,16.50
2011,07,02,08,38,16.60
2011,07,02,08,39,16.60
2011,07,02,08,40,16.70
2011,07,02,08,41,16.70
2011,07,02,08,42,16.70
2011,07,02,08,43,16.70
2011,07,02,08,44,16.80
2011,07,02,08,45,16.80
2011,07,02,08,46,16.80
2011,07,02,08,47,16.80
2011,07,02,08,48,16.90
2011,07,02,08,49,16.90
2011,07,02,08,50,17.00
2011,07,02,08,51,17.10
2011,07,02,08,52,17.10
2011,07,02,08,53,17.20
2011,07,02,08,54,17.20
2011,07,02,08,55,17.20
2011,07,02,08,56,17.10
2011,07,02,08,57,17.10
2011,07,02,08,58,17.10
2011,07,02,08,59,17.10
2011,07,02,09,00,17.10
2011,07,02,09,01,17.10
2011,07,02,09,02,17.10
2011,07,02,09,03,17.20
2011,07,02,09,04,17.20
2011,07,02,09,05,17.20
2011,07,02,09,06,17.30
2011,07,02,09,07,17.30
2011,07,02,09,08,17.30
2011,07,02,09,09,17.40
2011,07,02,09,10,17.40
2011,07,02,09,11,17.40
2011,07,02,09,12,17.30
2011,07,02,09,13,17.30
2011,07,02,09,14,17.20
2011,07,02,09,15,17.20
2011,07,02,09,16,17.20
2011,07,02,09,17,17.20
2011,07,02,09,18,17.20
2011,07,02,09,19,17.30
2011,07,02,09,20,17.30
2011,07,02,09,21,17.40
2011,07,02,09,22,17.50
2011,07,02,09,23,17.50
2011,07,02,09,24,17.50
2011,07,02,09,25,17.50
2011,07,02,09,26,17.40
2011,07,02,09,27,17.40
2011,07,02,09,28,17.40
2011,07,02,09,29,17.50
2011,07,02,09,30,17.50
2011,07,02,09,31,17.50
2011,07,02,09,32,17.50
2011,07,02,09,33,17.40
2011,07,02,09,34,17.40
2011,07,02,09,35,17.30
2011,07,02,09,36,17.20
2011,07,02,09,37,17.20
2011,07,02,09,38,17.10
2011,07,02,09,39,17.10
2011,07,02,09,40,17.10
2011,07,02,09,41,17.10
2011,07,02,09,42,17.00
2011,07,02,09,43,17.00
2011,07,02,09,44,17.10
2011,07,02,09,45,17.10
2011,07,02,09,46,17.10
2011,07,02,09,47,17.00
2011,07,02,09,48,17.00
2011,07,02,09,49,17.00
2011,07,02,09,50,17.00
2011,07,02,09,51,17.00
2011,07,02,09,52,17.00
2011,07,02,09,53,17.10
2011,07,02,09,54,17.20
2011,07,02,09,55,17.20
2011,07,02,09,56,17.30
2011,07,02,09,57,17.40
2011,07,02,09,58,17.40
2011,07,02,09,59,17.30
2011,07,02,10,00,17.30
2011,07,02,10,01,17.30
2011,07,02,10,02,17.30
2011,07,02,10,03,17.40
2011,07,02,10,04,17.50
2011,07,02,10,05,17.60
2011,07,02,10,06,17.60
2011,07,02,10,07,17.60
2011,07,02,10,08,17.70
2011,07,02,10,09,17.70
2011,07,02,10,10,17.80
2011,07,02,10,11,17.90
2011,07,02,10,12,18.00
2011,07,02,10,13,18.10
2011,07,02,10,14,18.30
2011,07,02,10,15,18.40
2011,07,02,10,16,18.40
2011,07,02,10,17,18.40
2011,07,02,10,18,18.30
2011,07,02,10,19,18.30
2011,07,02,10,20,18.20
2011,07,02,10,21,18.20
2011,07,02,10,22,18.20
2011,07,02,10,23,18.30
2011,07,02,10,24,18.40
2011,07,02,10,25,18.50
2011,07,02,10,26,18.50
2011,07,02,10,27,18.60
2011,07,02,10,28,18.60
2011,07,02,10,29,18.60
2011,07,02,10,30,18.50
2011,07,02,10,31,18.50
2011,07,02,10,32,18.50
2011,07,02,10,33,18.40
2011,07,02,10,34,18.50
2011,07,02,10,35,18.50
2011,07,02,10,36,18.50
2011,07,02,10,37,18.50
2011,07,02,10,38,18.40
2011,07,02,10,39,18.40
2011,07,02,10,40,18.30
2011,07,02,10,41,18.40
2011,07,02,10,42,18.40
2011,07,02,10,43,18.40
2011,07,02,10,44,18.50
2011,07,02,10,45,18.50
2011,07,02,10,46,18.40
2011,07,02,10,47,18.40
2011,07,02,10,48,18.40
2011,07,02,10,49,18.30
2011,07,02,10,50,18.30
2011,07,02,10,51,18.40
2011,07,02,10,52,18.50
2011,07,02,10,53,18.70
2011,07,02,10,54,18.60
2011,07,02,10,55,18.40
2011,07,02,10,56,18.30
2011,07,02,10,57,18.40
2011,07,02,10,58,18.50
2011,07,02,10,59,18.60
2011,07,02,11,00,18.60
2011,07,02,11,01,18.70
2011,07,02,11,02,18.70
2011,07,02,11,03,18.70
2011,07,02,11,04,18.70
2011,07,02,11,05,18.80
2011,07,02,11,06,18.80
2011,07,02,11,07,18.80
2011,07,02,11,08,18.80
2011,07,02,11,09,18.70
2011,07,02,11,10,18.70
2011,07,02,11,11,18.70
2011,07,02,11,12,18.70
2011,07,02,11,13,18.70
2011,07,02,11,14,18.80
2011,07,02,11,15,18.90
2011,07,02,11,16,19.00
2011,07,02,11,17,19.10
2011,07,02,11,18,19.20
2011,07,02,11,19,19.20
2011,07,02,11,20,19.30
2011,07,02,11,21,19.20
2011,07,02,11,22,19.20
2011,07,02,11,23,19.20
2011,07,02,11,24,19.20
2011,07,02,11,25,19.20
2011,07,02,11,26,19.20
2011,07,02,11,27,19.10
2011,07,02,11,28,19.10
2011,07,02,11,29,19.00
2011,07,02,11,30,18.90
2011,07,02,11,31,18.80
2011,07,02,11,32,18.80
2011,07,02,11,33,18.80
2011,07,02,11,34,18.80
2011,07,02,11,35,18.90
2011,07,02,11,36,19.00
2011,07,02,11,37,19.10
2011,07,02,11,38,19.00
2011,07,02,11,39,18.90
2011,07,02,11,40,18.90
2011,07,02,11,41,18.90
2011,07,02,11,42,18.90
2011,07,02,11,43,18.90
2011,07,02,11,44,18.80
2011,07,02,11,45,18.80
2011,07,02,11,46,18.80
2011,07,02,11,47,18.90
2011,07,02,11,48,19.00
2011,07,02,11,49,19.00
2011,07,02,11,50,19.10
2011,07,02,11,51,19.20
2011,07,02,11,52,19.30
2011,07,02,11,53,19.30
2011,07,02,11,54,19.40
2011,07,02,11,55,19.30
2011,07,02,11,56,19.20
2011,07,02,11,57,19.20
2011,07,02,11,58,19.20
2011,07,02,11,59,19.30
2011,07,02,12,00,19.40
2011,07,02,12,01,19.50
2011,07,02,12,02,19.60
2011,07,02,12,03,19.70
2011,07,02,12,04,19.70
2011,07,02,12,05,19.70
2011,07,02,12,06,19.70
2011,07,02,12,07,19.70
2011,07,02,12,08,19.80
2011,07,02,12,09,19.80
2011,07,02,12,10,19.80
2011,07,02,12,11,19.80
2011,07,02,12,12,19.90
2011,07,02,12,13,20.00
2011,07,02,12,14,20.10
2011,07,02,12,15,20.10
2011,07,02,12,16,20.20
2011,07,02,12,17,20.20
2011,07,02,12,18,20.20
2011,07,02,12,19,20.30
2011,07,02,12,20,20.30
2011,07,02,12,21,20.30
2011,07,02,12,22,20.30
2011,07,02,12,23,20.30
2011,07,02,12,24,20.20
2011,07,02,12,25,20.20
2011,07,02,12,26,20.20
2011,07,02,12,27,20.30
2011,07,02,12,28,20.30
2011,07,02,12,29,20.20
2011,07,02,12,30,20.20
2011,07,02,12,31,20.20
2011,07,02,12,32,20.20
2011,07,02,12,33,20.30
2011,07,02,12,34,20.30
2011,07,02,12,35,20.30
2011,07,02,12,36,20.30
2011,07,02,12,37,20.30
2011,07,02,12,38,20.30
2011,07,02,12,39,20.40
2011,07,02,12,40,20.40
2011,07,02,12,41,20.40
2011,07,02,12,42,20.30
2011,07,02,12,43,20.30
2011,07,02,12,44,20.20
2011,07,02,12,45,20.10
2011,07,02,12,46,20.00
2011,07,02,12,47,19.90
2011,07,02,12,48,20.00
2011,07,02,12,49,20.10
2011,07,02,12,50,20.20
2011,07,02,12,51,20.20
2011,07,02,12,52,20.20
2011,07,02,12,53,20.30
2011,07,02,12,54,20.20
2011,07,02,12,55,20.20
2011,07,02,12,56,20.20
2011,07,02,12,57,20.20
2011,07,02,12,58,20.30
2011,07,02,12,59,20.40
2011,07,02,13,00,20.40
2011,07,02,13,01,20.40
2011,07,02,13,02,20.40
2011,07,02,13,03,20.40
2011,07,02,13,04,20.40
2011,07,02,13,05,20.50
2011,07,02,13,06,20.50
2011,07,02,13,07,20.50
2011,07,02,13,08,20.60
2011,07,02,13,09,20.80
2011,07,02,13,10,20.90
2011,07,02,13,11,21.00
2011,07,02,13,12,21.00
2011,07,02,13,13,21.00
2011,07,02,13,14,21.00
2011,07,02,13,15,21.10
2011,07,02,13,16,21.10
2011,07,02,13,17,21.10
2011,07,02,13,18,21.20
2011,07,02,13,19,21.20
2011,07,02,13,20,21.30
2011,07,02,13,21,21.50
2011,07,02,13,22,21.70
2011,07,02,13,23,21.90
2011,07,02,13,24,22.00
2011,07,02,13,25,22.20
2011,07,02,13,26,22.20
2011,07,02,13,27,22.30
2011,07,02,13,28,22.30
2011,07,02,13,29,22.30
2011,07,02,13,30,22.30
2011,07,02,13,31,22.30
2011,07,02,13,32,22.20
2011,07,02,13,33,22.20
2011,07,02,13,34,22.10
2011,07,02,13,35,22.10
2011,07,02,13,36,22.10
2011,07,02,13,37,22.10
2011,07,02,13,38,22.10
2011,07,02,13,39,22.20
2011,07,02,13,40,22.30
2011,07,02,13,41,22.30
2011,07,02,13,42,22.30
2011,07,02,13,43,22.30
2011,07,02,13,44,22.40
2011,07,02,13,45,22.40
2011,07,02,13,46,22.40
2011,07,02,13,47,22.50
2011,07,02,13,48,22.60
2011,07,02,13,49,22.70
2011,07,02,13,50,22.80
2011,07,02,13,51,22.80
2011,07,02,13,52,22.80
2011,07,02,13,53,22.80
2011,07,02,13,54,22.80
2011,07,02,13,55,22.80
2011,07,02,13,56,22.70
2011,07,02,13,57,22.70
2011,07,02,13,58,22.80
2011,07,02,13,59,22.80
2011,07,02,14,00,22.90
2011,07,02,14,01,23.00
2011,07,02,14,02,23.00
2011,07,02,14,03,23.00
2011,07,02,14,04,23.10
2011,07,02,14,05,23.10
2011,07,02,14,06,23.10
2011,07,02,14,07,23.20
2011,07,02,14,08,23.30
2011,07,02,14,09,23.30
2011,07,02,14,10,23.40
2011,07,02,14,11,23.40
2011,07,02,14,12,23.40
2011,07,02,14,13,23.50
2011,07,02,14,14,23.40
2011,07,02,14,15,23.50
2011,07,02,14,16,23.50
2011,07,02,14,17,23.50
2011,07,02,14,18,23.40
2011,07,02,14,19,23.40
2011,07,02,14,20,23.40
2011,07,02,14,21,23.40
2011,07,02,14,22,23.40
2011,07,02,14,23,23.40
2011,07,02,14,24,23.40
2011,07,02,14,25,23.40
2011,07,02,14,26,23.50
2011,07,02,14,27,23.70
2011,07,02,14,28,23.70
2011,07,02,14,29,23.60
2011,07,02,14,30,23.50
2011,07,02,14,31,23.40
2011,07,02,14,32,23.30
2011,07,02,14,33,23.30
2011,07,02,14,34,23.30
2011,07,02,14,35,23.20
2011,07,02,14,36,23.20
2011,07,02,14,37,23.20
2011,07,02,14,38,23.10
2011,07,02,14,39,23.10
2011,07,02,14,40,23.20
2011,07,02,14,41,23.20
2011,07,02,14,42,23.30
2011,07,02,14,43,23.40
2011,07,02,14,44,23.60
2011,07,02,14,45,23.70
2011,07,02,14,46,23.70
2011,07,02,14,47,23.80
2011,07,02,14,48,23.60
2011,07,02,14,49,23.50
2011,07,02,14,50,23.40
2011,07,02,14,51,23.30
2011,07,02,14,52,23.30
2011,07,02,14,53,23.40
2011,07,02,14,54,23.50
2011,07,02,14,55,23.50
2011,07,02,14,56,23.40
2011,07,02,14,57,23.40
2011,07,02,14,58,23.40
2011,07,02,14,59,23.40
2011,07,02,15,00,23.50
2011,07,02,15,01,23.50
2011,07,02,15,02,23.40
2011,07,02,15,03,23.40
2011,07,02,15,04,23.40
2011,07,02,15,05,23.40
2011,07,02,15,06,23.40
2011,07,02,15,07,23.40
2011,07,02,15,08,23.40
2011,07,02,15,09,23.30
2011,07,02,15,10,23.20
2011,07,02,15,11,23.20
2011,07,02,15,12,23.20
2011,07,02,15,13,23.20
2011,07,02,15,14,23.20
2011,07,02,15,15,23.20
2011,07,02,15,16,23.20
2011,07,02,15,17,23.20
2011,07,02,15,18,23.20
2011,07,02,15,19,23.30
2011,07,02,15,20,23.30
2011,07,02,15,21,23.30
2011,07,02,15,22,23.30
2011,07,02,15,23,23.30
2011,07,02,15,24,23.30
2011,07,02,15,25,23.30
2011,07,02,15,26,23.30
2011,07,02,15,27,23.40
2011,07,02,15,28,23.40
2011,07,02,15,29,23.50
2011,07,02,15,30,23.50
2011,07,02,15,31,23.40
2011,07,02,15,32,23.40
2011,07,02,15,33,23.40
2011,07,02,15,34,23.40
2011,07,02,15,35,23.30
2011,07,02,15,36,23.30
2011,07,02,15,37,23.30
2011,07,02,15,38,23.30
2011,07,02,15,39,23.30
2011,07,02,15,40,23.30
2011,07,02,15,41,23.40
2011,07,02,15,42,23.50
2011,07,02,15,43,23.60
2011,07,02,15,44,23.50
2011,07,02,15,45,23.50
2011,07,02,15,46,23.60
2011,07,02,15,47,23.60
2011,07,02,15,48,23.60
2011,07,02,15,49,23.60
2011,07,02,15,50,23.60
2011,07,02,15,51,23.60
2011,07,02,15,52,23.60
2011,07,02,15,53,23.60
2011,07,02,15,54,23.70
2011,07,02,15,55,23.70
2011,07,02,15,56,23.70
2011,07,02,15,57,23.70
2011,07,02,15,58,23.80
2011,07,02,15,59,23.80
2011,07,02,16,00,23.80
2011,07,02,16,01,23.80
2011,07,02,16,02,23.90
2011,07,02,16,03,23.90
2011,07,02,16,04,23.90
2011,07,02,16,05,24.00
2011,07,02,16,06,24.00
2011,07,02,16,07,24.00
2011,07,02,16,08,24.00
2011,07,02,16,09,24.00
2011,07,02,16,10,24.00
2011,07,02,16,11,24.00
2011,07,02,16,12,23.90
2011,07,02,16,13,23.90
2011,07,02,16,14,23.80
2011,07,02,16,15,23.80
2011,07,02,16,16,23.80
2011,07,02,16,17,23.80
2011,07,02,16,18,23.80
2011,07,02,16,19,23.80
2011,07,02,16,20,23.90
2011,07,02,16,21,23.90
2011,07,02,16,22,24.00
2011,07,02,16,23,24.00
2011,07,02,16,24,24.10
2011,07,02,16,25,24.10
2011,07,02,16,26,24.20
2011,07,02,16,27,24.20
2011,07,02,16,28,24.20
2011,07,02,16,29,24.10
2011,07,02,16,30,24.10
2011,07,02,16,31,24.10
2011,07,02,16,32,24.10
2011,07,02,16,33,24.10
2011,07,02,16,34,24.10
2011,07,02,16,35,24.10
2011,07,02,16,36,24.10
2011,07,02,16,37,24.10
2011,07,02,16,38,24.10
2011,07,02,16,39,24.10
2011,07,02,16,40,24.10
2011,07,02,16,41,24.10
2011,07,02,16,42,24.20
2011,07,02,16,43,24.20
2011,07,02,16,44,24.20
2011,07,02,16,45,24.20
2011,07,02,16,46,24.20
2011,07,02,16,47,24.30
2011,07,02,16,48,24.30
2011,07,02,16,49,24.30
2011,07,02,16,50,24.30
2011,07,02,16,51,24.20
2011,07,02,16,52,24.00
2011,07,02,16,53,23.90
2011,07,02,16,54,23.90
2011,07,02,16,55,23.90
2011,07,02,16,56,23.90
2011,07,02,16,57,23.90
2011,07,02,16,58,23.90
2011,07,02,16,59,23.90
2011,07,02,17,00,23.80
2011,07,02,17,01,23.80
2011,07,02,17,02,23.80
2011,07,02,17,03,23.80
2011,07,02,17,04,23.70
2011,07,02,17,05,23.60
2011,07,02,17,06,23.50
2011,07,02,17,07,23.40
2011,07,02,17,08,23.30
2011,07,02,17,09,23.30
2011,07,02,17,10,23.20
2011,07,02,17,11,23.20
2011,07,02,17,12,23.20
2011,07,02,17,13,23.20
2011,07,02,17,14,23.20
2011,07,02,17,15,23.20
2011,07,02,17,16,23.10
2011,07,02,17,17,23.10
2011,07,02,17,18,23.10
2011,07,02,17,19,23.10
2011,07,02,17,20,23.00
2011,07,02,17,21,23.00
2011,07,02,17,22,23.00
2011,07,02,17,23,22.90
2011,07,02,17,24,22.80
2011,07,02,17,25,22.70
2011,07,02,17,26,22.70
2011,07,02,17,27,22.60
2011,07,02,17,28,22.60
2011,07,02,17,29,22.50
2011,07,02,17,30,22.30
2011,07,02,17,31,22.30
2011,07,02,17,32,22.20
2011,07,02,17,33,22.20